Regional Weather Roundup
Issued by NWS

Home | Current Version | Previous Version | Graphics & Text | Print | Product List | Glossary On
Versions: 1 2 3 4 5 6 7 8 9 10 11 12 13 14 15 16 17 18 19 20 21 22 23 24 25 26 27 28 29 30 31 32 33 34 35 36 37 38 39 40 41 42 43 44 45 46 47 48 49 50
000
ASUS43 KLOT 302021
RWRIL

ILLINOIS REGIONAL WEATHER ROUNDUP
NATIONAL WEATHER SERVICE CHICAGO/ROMEOVILLE IL
300 PM CDT SAT MAY 30 2015

NOTE: "FAIR" INDICATES FEW OR NO CLOUDS BELOW 12,000 FEET WITH NO
SIGNIFICANT WEATHER AND/OR OBSTRUCTIONS TO VISIBILITY.

* THESE STATIONS ARE NOT UNDER NWS QUALITY CONTROL. THEY ALSO MAY NOT
  REPORT WEATHER SUCH AS PRECIPITATION OR FOG.

ILZ001-002-007-009-015-016-024-302100-
NORTHWEST ILLINOIS

CITY           SKY/WX    TMP DP  RH WIND       PRES   REMARKS
MOLINE         CLOUDY    61  55  81 NE18G25   30.01R
STERLING*      CLOUDY    55  52  88 NE20      30.05R
SAVANNA*       CLOUDY    57  50  79 NE17G24   30.07R
$$

ILZ003-004-008-010-011-017-018-302100-
NORTH CENTRAL ILLINOIS

CITY           SKY/WX    TMP DP  RH WIND       PRES   REMARKS
ROCKFORD       LGT RAIN  54  50  86 NE20G30   30.09S
FREEPORT*      CLOUDY    52  49  90 NE16G26   30.10R
ROCHELLE*      LGT RAIN  53  51  92 NE29G38   30.04S
DE KALB*       RAIN      51  49  94 NE21      30.05S
PERU*          LGT RAIN  62  59  90 NE22G28   30.00R
$$

ILZ005-006-012>014-019>023-302100-
NORTHEAST ILLINOIS

CITY           SKY/WX    TMP DP  RH WIND       PRES   REMARKS
CHICAGO-OHARE  LGT RAIN  49  47  93 N21G31    30.05S
CHICAGO-MIDWAY LGT RAIN  51  49  92 N24G30    30.03S FOG
AURORA         LGT RAIN  53  50  89 NE22      30.03R FOG
LANSING*       LGT RAIN  50  47  91 N17G24    30.03R
JOLIET*        RAIN      54  52  94 N12G26    30.01R
WAUKEGAN       LGT RAIN  47  45  93 N23G32    30.05F
DUPAGE AIRPORT LGT RAIN  52  49  89 NE23G29   30.04R
KANKAKEE*      CLOUDY    62  60  94 N12G20    29.96R
WHEELING       LGT RAIN  50  47  89 N14G26    30.08S
MORRIS*        RAIN      56  54  94 NE8       29.98R
ROMEOVILLE*    LGT RAIN  51  49  93 NE22G33   30.02R
NORTHERLY ISL    N/A     48  46  93 MISG        N/A
$$

LMZ740>746-302100-
SOUTHERN LAKE MICHIGAN

STATION/POSITION SKY/WX   TEMP    WIND        PRES    VSBY  WAVE
                          AIR SEA DIR/SP/G                  HT/PER
                          (F)     (DEG/KT/KT) (MB)    (MI)  (FT/S)
SOUTHERN BUOY              42 38  360/ 23/ 27 1017.4F         6/ 6
HARRISON CRIB              47     350/ 30/ 35   N/A
BURNHAM HARBOR             48     340/ 20/ 24   N/A
CALUMET HARBOR             49     340/ 17/ 25   N/A
BURNS HARBOR               48     360/ 14/ 17 1017.3R
MICHIGAN CITY              46     360/ 12/ 14   N/A
MICHIGAN CITY 6N           46 56   30/ 12/ 16   N/A           4/ 4
ST. JOSEPH                 50 57   30/ 16/ 17   N/A           3/ 3
$$

ILZ025>027-034>036-040-047-049-050-058-095>099-302100-
WEST-CENTRAL ILLINOIS

CITY           SKY/WX    TMP DP  RH WIND       PRES   REMARKS
QUINCY         CLOUDY    67  64  90 NW16      29.98S
GALESBURG*     LGT RAIN  68  65  92 N15       29.97S
MACOMB*        CLOUDY    73  66  79 NW10G16   29.98F
JACKSONVILLE*  DRIZZLE   71  67  88 N9        29.95S
PITTSFIELD*    LGT RAIN  71  66  85 NW9       29.97S
$$

ILZ028>032-037-038-041>044-048-051>054-059>061-302100-
CENTRAL ILLINOIS

CITY           SKY/WX    TMP DP  RH WIND       PRES   REMARKS
PONTIAC        HVY RAIN  69  68  96 N8        29.96R
BLOOMINGTON    RAIN      68  67  96 NW7       29.96S FOG
DECATUR        CLOUDY    76  67  73 CALM      29.90F
PEORIA         CLOUDY    71  66  84 NE6       29.96F
LACON*         RAIN      67  65  93 N5        29.96F
LINCOLN*       HVY RAIN  69  66  91 NW7       29.92F
SPRINGFIELD    RAIN      70  67  90 N9        29.95R FOG
TAYLORVILLE    RAIN      70  68  94 NW14      29.92S
$$

ILZ033-039-045-046-055>057-062-063-302100-
EAST-CENTRAL ILLINOIS

CITY           SKY/WX    TMP DP  RH WIND       PRES   REMARKS
CHAMPAIGN      CLOUDY    72  69  90 SW7       29.91F
DANVILLE*      RAIN      72  69  90 S13       29.90S
RANTOUL*       TSTM      73  71  94 SE3       29.94R
MATTOON        CLOUDY    75  69  81 SW5       29.90F
PARIS*         CLOUDY    73  70  91 SW7       29.92F
$$

ILZ079-100>102-302100-
SOUTHWEST ILLINOIS

CITY           SKY/WX    TMP DP  RH WIND       PRES   REMARKS
BELLEVILLE     HVY RAIN  68  68 100 NW15      29.89S
CAHOKIA*       LGT RAIN  70  66  87 N13       29.92F FOG
SPARTA*        CLOUDY    69  67  93 W5        29.91F
$$

ILZ064>066-069>071-074>076-080>082-084>086-088>090-092>094-302100-
SOUTH-CENTRAL ILLINOIS

CITY           SKY/WX    TMP DP  RH WIND       PRES   REMARKS
CARBONDALE     LGT RAIN  73  69  87 S7        29.90R
CAIRO*         CLOUDY    73  68  84 S12G22    29.90F
EFFINGHAM*     MOSUNNY   76  69  79 NE3       29.91F
MARION         CLOUDY    72  70  94 S9        29.92R THUNDER
MT. VERNON     CLOUDY    75  64  69 S29G38    29.93R THUNDER
CENTRALIA*     MOSUNNY   81  69  66 S5        29.89F HX  83
SALEM*         CLOUDY    77  69  75 W8G25     29.89F
$$

ILZ067-068-072-073-078-083-087-091-302100-
SOUTHEAST ILLINOIS

CITY           SKY/WX    TMP DP  RH WIND       PRES   REMARKS
LAWRENCEVILLE  PTSUNNY   83  64  52 SW23G31   29.91F THUNDER HX  84
FLORA*         MOSUNNY   82  66  57 S13       29.89F HX  84
FAIRFIELD*     PTSUNNY   83  65  55 SE14G22   29.88S HX  85
HARRISBURG*    PTSUNNY   80  68  65 SE20G28   29.92S HX  83
ROBINSON*      MOSUNNY   78  69  73 NW7       29.91F HX  80
CARMI*         TSTM      73  64  73 SW16G23   29.92R
$$

ABBREVIATIONS USED IN REMARKS
   TC - TEMPERATURE IN CELSIUS
  WCI - WIND CHILL INDEX
   HX - HEAT INDEX
  VSB - VISIBILITY
$$



USA.gov is the U.S. government's official web portal to all federal, state and local government web resources and services.